791  
ASUS41 KPHI 250312  
RWRPHI  
 
REGIONAL WEATHER ROUNDUP  
NATIONAL WEATHER SERVICE MOUNT HOLLY NJ  
1100 PM EDT FRI SEP 24 2021  
 
NOTE: "FAIR" INDICATES FEW OR NO CLOUDS BELOW 12,000 FEET WITH NO  
SIGNIFICANT WEATHER AND/OR S TO VISIBILITY
.  
 
* = STATION DOES NOT REPORT PRECIPITATION (E.G. RAIN, SNOW, ETC.)  
OR FOG.
 
 
NJZ015>026-250400-  
SOUTHERN NEW JERSEY  
 
CITY SKY/WX TMP DP RH WIND PRES REMARKS
 
POMONA CLEAR 59 53 80 NW3 30.08S  
WILDWOOD* MOCLDY 60 54 80 N3 30.08F  
MILLVILLE CLEAR 53 51 93 CALM 30.08F  
WRIGHTSTOWN CLEAR 56 52 88 CALM 30.07F  
MOUNT HOLLY CLEAR 55 52 89 CALM 30.07F  
TRENTON CLEAR 55 54 96 CALM 30.07F  
 

 
NJZ001>014-250400-  
NORTHERN NEW JERSEY  
 
CITY SKY/WX TMP DP RH WIND PRES REMARKS
 
SUSSEX CLEAR 54 52 93 CALM 30.09F  
ANDOVER* N/A 55 52 89 CALM 30.09S  
MORRISTOWN CLEAR 54 54 100 CALM 30.08F  
NEWARK PTCLDY 66 51 58 NW5 30.06F  
TETERBORO CLEAR 62 52 69 CALM 30.05F  
CALDWELL CLEAR 59 54 83 CALM 30.08S  
SOMERVILLE CLEAR 54 54 100 CALM 30.07S  
ALLAIRE* CLEAR 59 54 83 NW5 30.08F  
TOMS RIVER* CLEAR 52 50 93 CALM 30.08  
 

 
PAZ043-044-047-054-055-060>062-066>071-250400-  
EASTERN PENNSYLVANIA  
 
CITY SKY/WX TMP DP RH WIND PRES REMARKS
 
PHILADELPHIA CLEAR 63 51 65 NW3 30.08S  
NORTH PHILA CLEAR 58 52 80 CALM 30.09F  
BLUE BELL* CLEAR 51 51 99 CALM 30.09S  
DOYLESTOWN CLEAR 55 50 83 CALM 30.07F  
QUAKERTOWN* CLEAR 52 52 100 CALM 30.09S  
PERKASIE* FAIR 50 50 100 CALM 30.09F FOG  
POTTSTOWN CLEAR 51 49 92 CALM 30.10S  
LANCASTER CLEAR 56 51 84 E3 30.08S  
COATESVILLE CLEAR 54 52 94 CALM 30.10S  
WEST CHESTER FAIR 55 50 82 CALM 30.09S  
READING CLEAR 57 54 89 CALM 30.07S  
ALLENTOWN CLEAR 54 51 90 CALM 30.08S  
QN CITY/ALNTWN FAIR 54 52 94 CALM 30.09S  
MOUNT POCONO CLEAR 46 46 100 CALM 30.10S  
HAZLETON CLEAR 46 45 93 CALM 30.12F  
LEHIGHTON FAIR 54 54 100 CALM 30.10S  
WILKES BARRE CLEAR 54 49 83 E7 30.08S  
 

 
DEZALL-MDZ008-012-015-019-020-250400-  
DELAWARE AND EASTERN MARYLAND  
 
CITY SKY/WX TMP DP RH WIND PRES REMARKS
 
WILMINGTON CLEAR 57 52 83 NW3 30.09S  
DOVER CLEAR 59 55 88 CALM 30.07S HAZE  
CHESWOLD CLEAR 54 54 100 CALM 30.08F  
GEORGETOWN CLEAR 57 53 86 CALM 30.08F  
EASTON CLEAR 57 56 96 CALM 30.12F  
ABERDEEN CLEAR 54 54 99 CALM 30.07S  
PATUXENT CLEAR 57 53 86 CALM 30.08S  
OCEAN CITY N/A N/A N/A N/A MISG 30.08S  
WALLOPS ISLAND PTCLDY 59 54 83 NW3 30.09S  
CAMBRIDGE CLEAR 55 55 100 CALM 30.09S  
SALISBURY CLEAR 56 53 90 CALM 30.08S  
 

 
PAZ001-021-NYZ056-072-MDZ011-DCZ001-250400-  
OTHER NEARBY LOCATIONS  
 
CITY SKY/WX TMP DP RH WIND PRES REMARKS
 
HARRISBURG CLEAR 60 53 77 CALM 30.07S  
STATE COLLEGE PTCLDY 53 48 82 CALM 30.08F  
WILLIAMSPORT CLEAR 53 50 89 CALM 30.06S  
BINGHAMTON CLEAR 54 47 77 S6 30.06S  
NEW YORK CITY CLEAR 63 51 65 CALM 30.09F  
BALTIMORE CLEAR 55 51 86 SW3 30.08S  
WASHINGTON DC CLEAR 63 54 72 CALM 30.09S  
 

 
 
 
CLICK HERE TO GO TO PREVIOUS BULLETINS.

The Nexlab PA Page
The Nexlab NJ Page
The Nexlab DE Page
The Nexlab MD Page Main Text Page